This is the latest recevied weather packets stored in our database for station/object DL6MM-4. If no packets are shown the sender has not sent any weather packets the latest 10 day(s).
| Time | Temp. | Humidity | Pressure | Rain* | Wind** | Luminosity | Snow |
|---|---|---|---|---|---|---|---|
| 1777524554 | 0.56° C | 84% | 1029.9 hPa | 0 mm | - | - | - |
| 1777523954 | 0.56° C | 85% | 1029.8 hPa | 0 mm | - | - | - |
| 1777523354 | 0° C | 85% | 1029.8 hPa | 0 mm | - | - | - |
| 1777522754 | -0.56° C | 85% | 1029.7 hPa | 0 mm | - | - | - |
| 1777522154 | -0.56° C | 84% | 1029.7 hPa | 0 mm | - | - | - |
| 1777521554 | 0° C | 83% | 1029.5 hPa | 0 mm | - | - | - |
| 1777520954 | 0° C | 83% | 1029.5 hPa | 0 mm | - | - | - |
| 1777520354 | 0° C | 82% | 1029.5 hPa | 0 mm | - | - | - |
| 1777519754 | 0.56° C | 82% | 1029.5 hPa | 0 mm | - | - | - |
| 1777519154 | 0.56° C | 81% | 1029.5 hPa | 0 mm | - | - | - |
| 1777518554 | 0.56° C | 80% | 1029.5 hPa | 0 mm | - | - | - |
| 1777517954 | 1.11° C | 80% | 1029.4 hPa | 0 mm | - | - | - |
| 1777517354 | 1.11° C | 78% | 1029.4 hPa | 0 mm | - | - | - |
| 1777516754 | 1.67° C | 75% | 1029.5 hPa | 0 mm | - | - | - |
| 1777516154 | 2.22° C | 74% | 1029.4 hPa | 0 mm | - | - | - |
| 1777515554 | 2.78° C | 71% | 1029.4 hPa | 0 mm | - | - | - |
| 1777514954 | 3.33° C | 70% | 1029.4 hPa | 0 mm | - | - | - |
| 1777514354 | 3.33° C | 72% | 1029.3 hPa | 0 mm | - | - | - |
| 1777513754 | 2.78° C | 74% | 1029.2 hPa | 0 mm | - | - | - |
| 1777513154 | 2.78° C | 72% | 1029.3 hPa | 0 mm | - | - | - |
| 1777512554 | 3.33° C | 72% | 1029.2 hPa | 0 mm | - | - | - |
| 1777511954 | 3.33° C | 71% | 1029 hPa | 0 mm | - | - | - |
| 1777511354 | 3.33° C | 73% | 1029 hPa | 0 mm | - | - | - |
| 1777510754 | 3.33° C | 75% | 1028.9 hPa | 0 mm | - | - | - |
| 1777510154 | 2.78° C | 74% | 1028.8 hPa | 0 mm | - | - | - |
* Rain latest hour (hover to see other rain measurements)
** Current wind speed in m/s (hover to see current wind gust speed)